GLONASS-K 2

Last updated on Tue Oct 21 2025 00:02:35 GMT+0000 (Coordinated Universal Time)

1 40315U 14075A 25293.03992250 .00000003 00000+0 00000+0 0 9992 2 40315 63.6141 198.6842 0020688 207.6377 152.2987 2.13101389 84734
UTC large
Height (km)
Speed (km/s)
/
Latitude / Longitude
Inclination (degrees)
Orbital Period (minutes)
Azimuth
Elevation
Range (km)
Doppler Factor

Next 0 passes for location: London (51.5072 / 0.1276)

Sorry there are no passes over London.